Location: Bijele Vode
(45.2833°N, 16.2000°E)
Time: 13:07:46
(UTC+00:00)

Exosat Rocket - Pass Details

Date: 18 September 2020
Orbit: 760 x 2514 km, 72.3° (Epoch: 30 October)

Event Time Altitude Azimuth Distance (km) Brightness Sun altitude
Rises 18:57:50 0° 192° (SSW) 3,778 7.0 -20.9°
Reaches altitude 10° 19:00:39 10° 190° (S) 2,648 6.1 -21.3°
Maximum altitude 19:06:20 63° 110° (ESE) 901 3.5 -22.2°
Drops below altitude 10° 19:11:16 10° 30° (NNE) 2,303 5.9 -23.0°
Sets 19:13:34 0° 27° (NNE) 3,243 6.8 -23.4°
